Skip Page Navigation
NASA JPL Caltech
NASA Logo - Jet Propulsion Laboratory + View the NASA Portal
+ Center for Near-Earth Object Studies
JPL Home Earth Solar System Stars & Galaxies Technology
JPL Solar System Dynamics
BODIES ORBITS EPHEMERIDES TOOLS PHYSICAL DATA DISCOVERY FAQ SITE MAP
JPL Small-Body Database Browser
Search: [ help ]  
105346 (2000 QN96)
Classification: Main-belt Asteroid          SPK-ID: 2105346
Ephemeris | Orbit Diagram | Orbital Elements | Mission Design | Physical Parameters | Discovery Circumstances | Close-Approach Data ]

[ show orbit diagram ]
Orbital Elements at Epoch 2459000.5 (2020-May-31.0) TDB
Reference: JPL 20 (heliocentric ecliptic J2000)
 Element Value Uncertainty (1-sigma)   Units 
e .1920586545582404 4.7778e-08  
a 3.085104588638136 2.658e-08 au
q 2.492583552172842 1.5141e-07 au
i 5.824878153509862 5.9968e-06 deg
node 22.76616626083129 4.2483e-05 deg
peri 324.6582122999507 4.4975e-05 deg
M 228.0538075441914 1.9415e-05 deg
tp 2459725.933531633653
(2022-May-26.43353163)
0.00011356 TDB
period 1979.261898562033
5.42
2.5579e-05
7.003e-08
d
yr
n .1818859850035743 2.3506e-09 deg/d
Q 3.67762562510343 3.1685e-08 au
  Orbit Determination Parameters
   # obs. used (total)      700  
   data-arc span      7180 days (19.66 yr)  
   first obs. used      2000-08-28  
   last obs. used      2020-04-25  
   planetary ephem.      DE431  
   SB-pert. ephem.      SB431-N16  
   condition code      0  
   norm. resid. RMS      .54208  
   source      ORB  
   producer      Otto Matic  
   solution date      2020-May-20 18:27:29  

Additional Information
 Earth MOID = 1.48905 au 
 Jupiter MOID = 1.76164 au 
 T_jup = 3.190 
[ show covariance matrix ]

Ephemeris | Orbit Diagram | Orbital Elements | Mission Design | Physical Parameters | Discovery Circumstances | Close-Approach Data ]

Physical Parameter Table
Parameter Symbol Value Units Sigma Reference Notes
absolute magnitude H 14.7   n/a MPO338015  
diameter diameter 7.892 km 0.891 urn:nasa:pds:neowise_diameters_albedos::2.0[mainbelt] (http://adsabs.harvard.edu/abs/2011ApJ...741...68M)  
geometric albedo albedo 0.037   0.008 urn:nasa:pds:neowise_diameters_albedos::2.0[mainbelt] (http://adsabs.harvard.edu/abs/2011ApJ...741...68M)  

105346 (2000 QN96)          Discovered 2000-Aug-28 by LINEAR at Socorro
Reference: 20051019/Numbers.arcLast Updated: 2005-10-26

[ show close-approach data ]
Ephemeris | Orbit Diagram | Orbital Elements | Mission Design | Physical Parameters | Discovery Circumstances | Close-Approach Data ]
ABOUT SSD CREDITS/AWARDS PRIVACY/COPYRIGHT GLOSSARY LINKS
FirstGov 2020-Aug-13 00:40 UT
(server date/time)  
NASA Home Page
Site Manager:   Ryan S. Park
Webmaster  Alan B. Chamberlin